Weather History for Neuburg, Germany

Change the Weather History Date:

Sunday, October 13, 2013

  Actual Average (EDMA) Record (EDMA)
Temperature  
Mean Temperature 42 °F -  
Max Temperature 55 °F 55 °F 71 °F (2001)
Min Temperature 30 °F 40 °F 28 °F (2004)
Degree Days  
Heating Degree Days 22    
Moisture  
Dew Point 38 °F    
Average Humidity 88    
Maximum Humidity 100    
Minimum Humidity 58    
Precipitation  
Precipitation 0.00 in - - ()
Sea Level Pressure  
Sea Level Pressure 30.13 in    
Wind  
Wind Speed 3 mph ()    
Max Wind Speed 7 mph    
Max Gust Speed -    
Visibility 3.2 miles    
Events Fog , Rain    
Averages and records for this station are not official NWS values.
T = Trace of Precipitation, MM = Missing Value Source: Averaged Metar Reports

Daily Weather History Graph

Daily Weather History Graph

Search for Another Location

Airport:

Trip Planner

Search our weather history database for the weather conditions in past years. The results will help you decide how hot, cold, wet, or windy it might be!

Date:

Astronomy

Oct. 13, 2013 Rise Set
Actual Time 7:32 AM CEST 6:29 PM CEST
Civil Twilight 7:00 AM CEST 7:01 PM CEST
Nautical Twilight 6:24 AM CEST 7:37 PM CEST
Astronomical Twilight 5:47 AM CEST 8:14 PM CEST
Moon 3:34 PM CEST (10/13) 12:55 AM CEST (10/13)
Length of Visible Light 12h 00m
Length of Day
10h 57m
Waxing Gibbous, 66% of the Moon is Illuminated
Oct 13
Waxing Gibbous
Oct 19
Full
Oct 27
Last Quarter
Nov 3
New
Nov 10
First Quarter

Hourly Weather History & Observations

Time (CEST) Temp. Windchill Dew Point Humidity Pressure Visibility Wind Dir Wind Speed Gust Speed Precip Events Conditions
12:20 AM 33.8 °F 30.8 °F 33.8 °F 100% 30.06 in 0.8 mi North 3.5 mph - N/A Fog Patches of Fog
1:20 AM 33.8 °F - 32.0 °F 93% 30.06 in 0.3 mi ESE 2.3 mph - N/A Fog Patches of Fog
2:20 AM 30.2 °F - 30.2 °F 100% 30.09 in 0.3 mi SW 2.3 mph - N/A Fog Light Freezing Fog
3:11 AM 32.0 °F - 32.0 °F 100% 30.09 in 0.6 mi Variable 2.3 mph - N/A Rain Rain
3:20 AM 33.8 °F - 33.8 °F 100% 30.09 in 1.2 mi WSW 1.2 mph - N/A Rain Light Rain
4:20 AM 35.6 °F 32.8 °F 35.6 °F 100% 30.09 in 1.6 mi SW 3.5 mph - N/A   Overcast
5:20 AM 35.6 °F - 35.6 °F 100% 30.09 in 1.9 mi NE 2.3 mph - N/A   Overcast
6:20 AM 37.4 °F - 35.6 °F 93% 30.12 in 1.6 mi NW 2.3 mph - N/A   Mostly Cloudy
6:49 AM 35.6 °F - 35.6 °F 100% 30.12 in 1.4 mi SSW 1.2 mph - N/A   Mostly Cloudy
7:20 AM 35.6 °F - 35.6 °F 100% 30.12 in 1.4 mi WSW 2.3 mph - N/A   Mostly Cloudy
7:52 AM 35.6 °F - 33.8 °F 93% 30.12 in 0.9 mi Variable 1.2 mph - N/A Fog Fog
8:11 AM 35.6 °F - 35.6 °F 100% 30.15 in 0.2 mi North 2.3 mph - N/A Fog Fog
8:20 AM 35.6 °F - 35.6 °F 100% 30.15 in 0.1 mi North 2.3 mph - N/A Fog Fog
8:38 AM 37.4 °F - 35.6 °F 93% 30.15 in 0.3 mi North 2.3 mph - N/A Fog Fog
8:59 AM 37.4 °F - 37.4 °F 100% 30.15 in 0.1 mi North 2.3 mph - N/A Fog Fog
9:20 AM 37.4 °F - 37.4 °F 100% 30.15 in 0.1 mi North 2.3 mph - N/A Fog Fog
10:10 AM 41.0 °F - 39.2 °F 93% 30.15 in 0.3 mi Variable 2.3 mph - N/A Fog Fog
10:20 AM 41.0 °F - 41.0 °F 100% 30.15 in 1.2 mi Variable 2.3 mph - N/A   Scattered Clouds
10:26 AM 41.0 °F - 41.0 °F 100% 30.15 in - North 2.3 mph - N/A   Scattered Clouds
10:30 AM 42.8 °F - 41.0 °F 93% 30.15 in 3.1 mi North 2.3 mph - N/A   Scattered Clouds
11:20 AM 48.2 °F - 39.2 °F 71% 30.15 in 6.2 mi SSW 5.8 mph - N/A   Partly Cloudy
12:20 PM 51.8 °F - 41.0 °F 67% 30.15 in 6.2 mi WSW 5.8 mph - N/A   Partly Cloudy
1:20 PM 53.6 °F - 39.2 °F 58% 30.15 in 6.2 mi WSW 5.8 mph - N/A   Partly Cloudy
1:21 PM 53.6 °F - 41.0 °F 62% 30.15 in 6.2 mi SW 5.8 mph - N/A   Partly Cloudy
2:20 PM 53.6 °F - 41.0 °F 62% 30.12 in 6.2 mi SSW 6.9 mph - N/A   Partly Cloudy
3:20 PM 55.4 °F - 42.8 °F 63% 30.12 in 6.2 mi SSE 4.6 mph - N/A   Scattered Clouds
4:20 PM 55.4 °F - 42.8 °F 63% 30.12 in 6.2 mi SE 6.9 mph - N/A   Mostly Cloudy
5:20 PM 53.6 °F - 42.8 °F 67% 30.12 in 6.2 mi ESE 5.8 mph - N/A   Mostly Cloudy
6:20 PM 51.8 °F - 42.8 °F 71% 30.12 in 6.2 mi ENE 3.5 mph - N/A   Scattered Clouds
7:20 PM 46.4 °F - 41.0 °F 81% 30.12 in 6.2 mi East 2.3 mph - N/A   Scattered Clouds
8:20 PM 42.8 °F 41.1 °F 41.0 °F 93% 30.12 in 6.2 mi North 3.5 mph - N/A   Scattered Clouds
9:20 PM 42.8 °F - 41.0 °F 93% 30.12 in 6.2 mi NE 2.3 mph - N/A Fog Shallow Fog
10:20 PM 41.0 °F - 39.2 °F 93% 30.15 in 6.2 mi NNE 2.3 mph - N/A Fog Shallow Fog
11:20 PM 41.0 °F - 39.2 °F 93% 30.15 in 6.2 mi NE 2.3 mph - N/A   Scattered Clouds